TimeCST,TemperatureF,Dew PointF,Humidity,Sea Level PressureIn,VisibilityMPH,Wind Direction,Wind SpeedMPH,Gust SpeedMPH,PrecipitationIn,Events,Conditions,WindDirDegrees,DateUTC
12:20 AM,36.0,26.1,67,29.65,10.0,NW,11.5,19.6,N/A,,Overcast,310,2014-01-20 06:20:00
12:56 AM,35.1,25.0,67,29.68,10.0,NW,9.2,-,N/A,,Overcast,310,2014-01-20 06:56:00
1:56 AM,34.0,24.1,67,29.71,10.0,NW,10.4,-,N/A,,Overcast,320,2014-01-20 07:56:00
2:54 AM,33.8,24.8,70,29.73,10.0,NW,4.6,-,N/A,,Overcast,310,2014-01-20 08:54:00
2:56 AM,33.1,25.0,72,29.74,10.0,WNW,4.6,-,N/A,,Overcast,300,2014-01-20 08:56:00
3:15 AM,33.1,24.1,70,29.73,10.0,WNW,6.9,-,N/A,,Overcast,300,2014-01-20 09:15:00
3:25 AM,33.1,24.1,70,29.74,10.0,WNW,9.2,-,N/A,,Overcast,300,2014-01-20 09:25:00
3:56 AM,33.1,24.1,70,29.73,10.0,WNW,9.2,-,N/A,,Mostly Cloudy,300,2014-01-20 09:56:00
4:56 AM,32.0,24.1,73,29.75,10.0,West,9.2,-,N/A,,Overcast,270,2014-01-20 10:56:00
5:56 AM,32.0,24.1,73,29.77,10.0,West,8.1,-,N/A,,Overcast,280,2014-01-20 11:56:00
6:30 AM,32.0,23.0,69,29.76,10.0,West,9.2,-,N/A,,Overcast,280,2014-01-20 12:30:00
6:56 AM,30.0,24.1,79,29.78,10.0,WSW,4.6,-,N/A,,Overcast,240,2014-01-20 12:56:00
7:56 AM,30.0,23.0,75,29.81,10.0,West,4.6,-,N/A,,Overcast,260,2014-01-20 13:56:00
8:18 AM,30.0,23.0,75,29.80,10.0,West,4.6,-,N/A,,Overcast,260,2014-01-20 14:18:00
8:56 AM,30.9,23.0,72,29.82,10.0,West,5.8,-,N/A,,Overcast,270,2014-01-20 14:56:00
9:25 AM,30.9,24.1,76,29.83,10.0,WSW,6.9,-,N/A,,Overcast,250,2014-01-20 15:25:00
9:43 AM,30.9,24.1,76,29.84,10.0,West,8.1,-,N/A,,Overcast,270,2014-01-20 15:43:00
9:56 AM,30.9,24.1,76,29.86,10.0,West,9.2,-,N/A,,Overcast,270,2014-01-20 15:56:00
10:56 AM,30.0,23.0,75,29.89,9.0,NNE,13.8,-,N/A,,Overcast,30,2014-01-20 16:56:00
11:08 AM,28.0,21.0,75,29.89,7.0,NNE,13.8,-,N/A,,Overcast,20,2014-01-20 17:08:00
11:29 AM,26.1,19.9,78,29.89,7.0,NNE,12.7,-,N/A,,Overcast,30,2014-01-20 17:29:00
11:56 AM,27.0,19.9,75,29.91,7.0,NE,6.9,-,N/A,,Overcast,40,2014-01-20 17:56:00
12:08 PM,27.0,19.9,75,29.90,6.0,NNE,6.9,-,N/A,,Haze,20,2014-01-20 18:08:00
12:49 PM,25.0,19.0,78,29.91,2.5,NNE,10.4,-,0.00,Snow,Light Snow,20,2014-01-20 18:49:00
12:56 PM,25.0,18.0,75,29.92,4.0,NNE,10.4,-,0.00,Snow,Light Snow,30,2014-01-20 18:56:00
1:44 PM,24.1,17.1,75,29.92,2.0,NE,8.1,-,0.00,Snow,Light Snow,40,2014-01-20 19:44:00
1:48 PM,23.0,17.1,78,29.92,1.8,NNE,6.9,-,0.00,Snow,Light Snow,30,2014-01-20 19:48:00
1:56 PM,23.0,17.1,78,29.93,2.0,NE,8.1,-,0.00,Snow,Light Snow,40,2014-01-20 19:56:00
2:07 PM,23.0,17.1,78,29.92,4.0,NE,6.9,-,0.00,Snow,Light Snow,40,2014-01-20 20:07:00
2:23 PM,23.0,16.0,74,29.94,2.5,NNE,8.1,-,0.00,Snow,Light Snow,30,2014-01-20 20:23:00
2:41 PM,21.9,16.0,78,29.94,1.5,NE,4.6,-,0.00,Snow,Light Snow,40,2014-01-20 20:41:00
2:56 PM,21.9,17.1,82,29.96,1.5,ENE,6.9,-,0.00,Snow,Light Snow,70,2014-01-20 20:56:00
3:21 PM,21.9,17.1,82,29.96,1.2,ENE,8.1,-,0.00,Snow,Light Snow,70,2014-01-20 21:21:00
3:45 PM,21.0,16.0,81,29.98,1.0,NNE,9.2,-,0.00,Snow,Light Snow,20,2014-01-20 21:45:00
3:56 PM,19.9,15.1,81,30.00,1.0,NE,12.7,-,0.00,Snow,Light Snow,40,2014-01-20 21:56:00
4:40 PM,18.0,10.9,74,30.02,1.8,NE,12.7,-,0.00,Snow,Light Snow,40,2014-01-20 22:40:00
4:48 PM,18.0,12.0,78,30.02,2.0,NE,8.1,-,0.00,Snow,Light Snow,40,2014-01-20 22:48:00
4:56 PM,18.0,10.9,74,30.05,3.0,NE,13.8,-,0.00,Snow,Light Snow,40,2014-01-20 22:56:00
5:13 PM,17.1,10.9,77,30.04,2.5,NE,11.5,-,0.00,Snow,Light Snow,40,2014-01-20 23:13:00
5:21 PM,17.1,10.9,77,30.05,3.0,NNE,9.2,-,0.00,Snow,Light Snow,30,2014-01-20 23:21:00
5:32 PM,17.1,10.9,77,30.05,2.0,NE,16.1,20.7,0.00,Snow,Light Snow,40,2014-01-20 23:32:00
5:43 PM,17.1,10.0,74,30.06,3.0,NNE,11.5,-,0.00,Snow,Light Snow,30,2014-01-20 23:43:00
5:56 PM,16.0,9.0,74,30.09,2.5,NE,16.1,21.9,0.00,Snow,Light Snow,40,2014-01-20 23:56:00
6:10 PM,16.0,9.0,74,30.08,3.0,NNE,13.8,-,0.00,Snow,Light Snow,30,2014-01-21 00:10:00
6:56 PM,15.1,8.1,74,30.12,2.5,NNE,10.4,-,0.00,Snow,Light Snow,30,2014-01-21 00:56:00
7:04 PM,15.1,9.0,77,30.10,1.8,NNE,12.7,-,0.00,Snow,Light Snow,30,2014-01-21 01:04:00
7:16 PM,14.0,9.0,80,30.11,0.8,North,16.1,-,0.00,Snow,Light Snow,360,2014-01-21 01:16:00
7:26 PM,14.0,8.1,77,30.11,1.5,North,12.7,-,0.00,Snow,Light Snow,10,2014-01-21 01:26:00
7:32 PM,14.0,7.0,74,30.11,2.0,North,12.7,21.9,0.00,Snow,Light Snow,10,2014-01-21 01:32:00
7:41 PM,12.9,6.1,74,30.12,3.0,North,16.1,25.3,0.00,Snow,Light Snow,360,2014-01-21 01:41:00
7:56 PM,12.9,6.1,74,30.15,4.0,North,12.7,23.0,0.00,Snow,Light Snow,10,2014-01-21 01:56:00
8:19 PM,12.0,5.0,73,30.15,2.5,North,18.4,-,0.00,Snow,Light Snow,360,2014-01-21 02:19:00
8:37 PM,12.0,3.0,67,30.16,3.0,North,15.0,-,0.00,Snow,Light Snow,10,2014-01-21 02:37:00
8:56 PM,10.9,3.0,70,30.19,4.0,North,11.5,24.2,0.00,Snow,Light Snow,360,2014-01-21 02:56:00
9:56 PM,10.0,-2.9,56,30.23,10.0,North,13.8,-,0.00,,Overcast,10,2014-01-21 03:56:00
10:56 PM,9.0,-2.9,59,30.26,10.0,North,13.8,-,N/A,,Overcast,10,2014-01-21 04:56:00
11:56 PM,6.1,-6.0,58,30.29,10.0,North,18.4,24.2,N/A,,Mostly Cloudy,360,2014-01-21 05:56:00